Location: Newark
(43.0000°N, 1.6781°W)
Time: 22:34:13
(UTC+00:00)

Vanguard 1 Rocket - Pass Details

Date: 22 April 2021
Orbit: 652 x 4224 km, 34.3° (Epoch: 10 May)

Event Time Altitude Azimuth Distance (km) Brightness Sun altitude
Rises 17:27:33 0° 259° (W) 2,965 11.7 15.3°
Reaches altitude 10° 17:30:35 10° 235° (SW) 2,074 10.2 14.7°
Maximum altitude 17:33:17 15° 198° (SSW) 1,844 9.3 14.2°
Drops below altitude 10° 17:36:20 10° 161° (SSE) 2,414 9.4 13.7°
Sets 17:40:22 0° 140° (SE) 3,775 10.2 13.0°
